Regional Weather Roundup
Issued by NWS

Home | Current Version | Previous Version | Text Only | Print | Product List | Glossary Off
Versions: 1 2 3 4 5 6 7 8 9 10 11 12 13 14 15 16 17 18 19 20 21 22 23 24 25 26 27 28 29 30 31 32 33 34 35 36 37 38 39 40 41 42 43 44 45 46 47 48 49 50

000
ASUS43 KLOT 240206
RWRIL

ILLINOIS REGIONAL WEATHER ROUNDUP
NATIONAL WEATHER SERVICE CHICAGO/ROMEOVILLE IL
900 PM CDT WED APR 23 2014

NOTE: "FAIR" INDICATES FEW OR NO CLOUDS BELOW 12,000 FEET WITH NO
SIGNIFICANT WEATHER AND/OR OBSTRUCTIONS TO VISIBILITY.

* THESE STATIONS ARE NOT UNDER NWS QUALITY CONTROL. THEY ALSO MAY NOT
  REPORT WEATHER SUCH AS PRECIPITATION OR FOG.

ILZ001-002-007-009-015-016-024-240300-
NORTHWEST ILLINOIS

CITY           SKY/WX    TMP DP  RH WIND       PRES   REMARKS
MOLINE         CLOUDY    48  40  73 E10       29.97F
STERLING*      CLOUDY    46  37  71 E9        30.02R
SAVANNA*       CLOUDY    48  39  73 E10       30.01S
$$

ILZ003-004-008-010-011-017-018-240300-
NORTH CENTRAL ILLINOIS

CITY           SKY/WX    TMP DP  RH WIND       PRES   REMARKS
ROCKFORD       LGT RAIN  47  27  45 E17       30.05F
FREEPORT*      LGT RAIN  42  35  75 E12       30.04S
ROCHELLE*      LGT RAIN  45  32  60 E14       30.05R
DE KALB*       CLOUDY    44  25  46 E16       30.05F
PERU*          LGT RAIN  52  35  52 CALM      30.01F
$$

ILZ005-006-012>014-019>023-240300-
NORTHEAST ILLINOIS

CITY           SKY/WX    TMP DP  RH WIND       PRES   REMARKS
CHICAGO-OHARE  CLOUDY    42  20  41 E8        30.09F
CHICAGO-MIDWAY CLOUDY    42  23  46 E10       30.10F
AURORA         CLOUDY    47  24  40 E14       30.06F
LANSING*       CLOUDY    39  27  60 NE9       30.11F WCI  33
JOLIET*        CLOUDY    43  24  47 E14       30.08F
WAUKEGAN       CLOUDY    38  20  48 NE7       30.10F WCI  33
DUPAGE AIRPORT CLOUDY    43  22  43 E13       30.07F
KANKAKEE*      CLOUDY    43  30  60 NE16      30.08F
WHEELING       CLOUDY    41  21  44 E7        30.11F
MORRIS*        CLOUDY    47  22  37 E14       30.05F
NORTHERLY ISL    N/A     39  28  65 NE9         N/A  WCI  33
$$

LMZ740>746-240300-
SOUTHERN LAKE MICHIGAN

STATION/POSITION SKY/WX   TEMP    WIND        PRES    VSBY  WAVE
                          AIR SEA DIR/SP/G                  HT/PER
                          (F)     (DEG/KT/KT) (MB)    (MI)  (FT/S)
WAUKEGAN HARBOR            38      50/  7/  9 1021.0F
HARRISON CRIB              38      40/  8/  9   N/A
BURNHAM HARBOR             40      60/  9/ 11   N/A
CALUMET HARBOR             39      40/  7/  9 1020.6F
MICHIGAN CITY              38      20/ 10/ 11   N/A
$$

ILZ025>027-034>036-040-047-049-050-058-095>099-240300-
WEST-CENTRAL ILLINOIS

CITY           SKY/WX    TMP DP  RH WIND       PRES   REMARKS
QUINCY         MOCLDY    56  31  38 SE15      29.91F
GALESBURG*     CLOUDY    50  38  64 E8        29.99S
MACOMB*        CLOUDY    52  37  56 E10       29.99S
JACKSONVILLE*  MOCLDY    56  31  39 E9        29.99S
PITTSFIELD*    MOCLDY    56  35  44 E10       29.96F
$$

ILZ028>032-037-038-041>044-048-051>054-059>061-240300-
CENTRAL ILLINOIS

CITY           SKY/WX    TMP DP  RH WIND       PRES   REMARKS
PONTIAC        DRIZZLE   52  34  50 E15       30.04
BLOOMINGTON    LGT RAIN  49  39  68 E15       30.02F
DECATUR        CLOUDY    55  32  41 E9        30.02R
PEORIA         CLOUDY    55  34  45 E9        30.00S
LACON*         LGT RAIN  49  39  66 E10       29.98F
LINCOLN*       CLOUDY    56  32  40 E12       30.00S
SPRINGFIELD    MOCLDY    57  27  31 SE12      30.00S
TAYLORVILLE    CLOUDY    55  32  41 SE6       30.01S
$$

ILZ033-039-045-046-055>057-062-063-240300-
EAST-CENTRAL ILLINOIS

CITY           SKY/WX    TMP DP  RH WIND       PRES   REMARKS
CHAMPAIGN      CLOUDY    52  41  66 E7        30.04R
RANTOUL*       CLOUDY    58  29  33 CALM      30.05S
MATTOON        CLOUDY    57  29  34 E7        30.01F
PARIS*         CLOUDY    56  34  43 E16       30.00F
$$

ILZ079-100>102-240300-
SOUTHWEST ILLINOIS

CITY           SKY/WX    TMP DP  RH WIND       PRES   REMARKS
ALTON          MOCLDY    55  37  50 E7        29.99S
BELLEVILLE     MOCLDY    58  39  48 E7        29.98S
CAHOKIA*       CLOUDY    59  39  47 E9        29.97F
SPARTA*        PTCLDY    55  37  50 E9        30.00R
$$

ILZ064>066-069>071-074>076-080>082-084>086-088>090-092>094-240300-
SOUTH-CENTRAL ILLINOIS

CITY           SKY/WX    TMP DP  RH WIND       PRES   REMARKS
CARBONDALE     PTCLDY    57  36  45 E7        30.00S
CAIRO*         CLEAR     62  37  38 E6        29.99F
MARION         PTCLDY    59  34  38 E5        30.01S
MT. VERNON     CLOUDY    59  32  36 E3        30.02S
CENTRALIA*     MOCLDY    57  32  39 CALM      30.01S
SALEM*         CLOUDY    59  36  42 E3        30.02R
METROPOLIS*    CLEAR     59  31  34 CALM      30.00R
$$

ILZ067-068-072-073-078-083-087-091-240300-
SOUTHEAST ILLINOIS

CITY           SKY/WX    TMP DP  RH WIND       PRES   REMARKS
FLORA*         CLOUDY    56  37  47 E6        30.02S
FAIRFIELD*     CLOUDY    59  37  44 E6        30.02S
HARRISBURG*    PTCLDY    58  37  46 E3        30.03S
ROBINSON*      CLOUDY    58  41  52 E6        30.05S
CARMI*         CLOUDY    58  43  56 NE6       30.02S
$$

ABBREVIATIONS USED IN REMARKS
   TC - TEMPERATURE IN CELSIUS
  WCI - WIND CHILL INDEX
   HX - HEAT INDEX
  VSB - VISIBILITY
$$




USA.gov is the U.S. government's official web portal to all federal, state and local government web resources and services.